When you browse on this site, cookies collect data to enhance your experience and personalize the content and advertising you see.
Visit our Privacy Policy to learn more. By continuing to use the site, you agree to this use of cookies and data.
  • In Hungary
  • List of Countries
  • For 7 days
  • Water Temperature
  • Satellite Maps
  • Weather Map
  • News
  • Weather Widgets
  • user-avatar
    Login

    Hourly Weather Voskhod

    Today, 19 July, Friday

    Time Temperature Precipitation Wind Pressure Humidity
    00:00 +21°C° 0 mm 3 mps 756 mmHg 53%
    01:00 +20°C° 0 mm 2 mps 756 mmHg 55%
    02:00 +19°C° 0 mm 2 mps 756 mmHg 58%
    03:00 +19°C° 0 mm 2 mps 757 mmHg 59%
    04:00 +19°C° 0 mm 2 mps 757 mmHg 61%
    05:00 +20°C° 0 mm 1 mps 757 mmHg 63%
    06:00 +21°C° 0 mm 2 mps 757 mmHg 55%
    07:00 +24°C° 0 mm 2 mps 758 mmHg 48%
    08:00 +27°C° 0 mm 2 mps 758 mmHg 41%
    09:00 +28°C° 0 mm 2 mps 758 mmHg 36%
    10:00 +29°C° 0 mm 2 mps 758 mmHg 31%
    11:00 +31°C° 0 mm 2 mps 758 mmHg 27%
    12:00 +31°C° 0 mm 3 mps 758 mmHg 26%
    13:00 +32°C° 0 mm 4 mps 758 mmHg 26%
    14:00 +33°C° 0 mm 4 mps 758 mmHg 25%
    15:00 +32°C° 0 mm 4 mps 758 mmHg 26%
    16:00 +32°C° 0 mm 4 mps 758 mmHg 27%
    17:00 +30°C° 0 mm 3 mps 758 mmHg 28%
    18:00 +28°C° 0 mm 3 mps 758 mmHg 33%
    19:00 +26°C° 0 mm 2 mps 759 mmHg 39%
    20:00 +24°C° 0 mm 1 mps 759 mmHg 45%
    21:00 +23°C° 0 mm 1 mps 759 mmHg 48%
    22:00 +22°C° 0 mm 1 mps 759 mmHg 52%
    23:00 +21°C° 0 mm 1 mps 760 mmHg 55%

    Tomorrow, 20 July, Saturday

    Time Temperature Precipitation Wind Pressure Humidity
    00:00 +21°C° 0 mm 1 mps 760 mmHg 57%
    01:00 +21°C° 0 mm 1 mps 760 mmHg 59%
    02:00 +18°C° 0 mm 0 mps 759 mmHg 60%
    03:00 +18°C° 0 mm 0 mps 760 mmHg 60%
    04:00 +18°C° 0 mm 0 mps 760 mmHg 59%
    05:00 +19°C° 0 mm 0 mps 760 mmHg 59%
    06:00 +23°C° 0 mm 1 mps 760 mmHg 51%
    07:00 +26°C° 0 mm 1 mps 760 mmHg 43%
    08:00 +29°C° 0 mm 2 mps 761 mmHg 35%
    09:00 +30°C° 0 mm 2 mps 761 mmHg 32%
    10:00 +31°C° 0 mm 3 mps 761 mmHg 29%
    11:00 +33°C° 0 mm 3 mps 761 mmHg 25%
    12:00 +33°C° 0 mm 4 mps 761 mmHg 26%
    13:00 +34°C° 0 mm 5 mps 761 mmHg 26%
    14:00 +34°C° 0 mm 5 mps 760 mmHg 26%
    15:00 +33°C° 0 mm 5 mps 760 mmHg 27%
    16:00 +33°C° 0 mm 4 mps 760 mmHg 28%
    17:00 +32°C° 0 mm 4 mps 760 mmHg 29%
    18:00 +29°C° 0 mm 3 mps 760 mmHg 35%
    19:00 +27°C° 0 mm 3 mps 760 mmHg 40%
    20:00 +25°C° 0 mm 2 mps 761 mmHg 46%
    21:00 +24°C° 0 mm 1 mps 761 mmHg 49%
    22:00 +23°C° 0 mm 1 mps 761 mmHg 52%
    23:00 +20°C° 0 mm 0 mps 761 mmHg 55%

    Day after tomorrow, 21 July, Sunday

    Time Temperature Precipitation Wind Pressure Humidity
    00:00 +20°C° 0 mm 0 mps 760 mmHg 56%
    01:00 +19°C° 0 mm 0 mps 760 mmHg 56%
    02:00 +19°C° 0 mm 0 mps 760 mmHg 57%
    03:00 +21°C° 0 mm 1 mps 760 mmHg 57%
    04:00 +21°C° 0 mm 1 mps 760 mmHg 56%
    05:00 +21°C° 0 mm 1 mps 760 mmHg 56%
    06:00 +24°C° 0 mm 2 mps 760 mmHg 49%
    07:00 +27°C° 0 mm 3 mps 760 mmHg 43%
    08:00 +29°C° 0 mm 3 mps 760 mmHg 37%
    09:00 +32°C° 0 mm 4 mps 760 mmHg 33%
    10:00 +33°C° 0 mm 5 mps 760 mmHg 28%
    11:00 +34°C° 0 mm 5 mps 760 mmHg 23%
    12:00 +34°C° 0 mm 5 mps 760 mmHg 22%
    13:00 +35°C° 0 mm 5 mps 760 mmHg 21%
    14:00 +35°C° 0 mm 5 mps 760 mmHg 20%
    15:00 +34°C° 0 mm 5 mps 760 mmHg 22%
    16:00 +34°C° 0 mm 5 mps 760 mmHg 23%
    17:00 +33°C° 0 mm 4 mps 760 mmHg 24%
    18:00 +30°C° 0 mm 3 mps 760 mmHg 31%
    19:00 +27°C° 0 mm 2 mps 760 mmHg 39%
    20:00 +25°C° 0 mm 1 mps 760 mmHg 46%
    21:00 +24°C° 0 mm 1 mps 760 mmHg 47%
    22:00 +24°C° 0 mm 1 mps 760 mmHg 48%
    23:00 +23°C° 0 mm 1 mps 760 mmHg 49%

    22 July, Monday

    Time Temperature Precipitation Wind Pressure Humidity
    00:00 +23°C° 0 mm 1 mps 760 mmHg 50%
    01:00 +23°C° 0 mm 1 mps 760 mmHg 50%
    02:00 +23°C° 0 mm 1 mps 759 mmHg 50%
    03:00 +23°C° 0 mm 1 mps 759 mmHg 50%
    04:00 +23°C° 0 mm 1 mps 759 mmHg 51%
    05:00 +23°C° 0 mm 1 mps 759 mmHg 51%
    06:00 +25°C° 0 mm 1 mps 759 mmHg 45%
    07:00 +28°C° 0 mm 1 mps 759 mmHg 38%
    08:00 +31°C° 0 mm 1 mps 759 mmHg 32%
    09:00 +32°C° 0 mm 2 mps 759 mmHg 29%
    10:00 +34°C° 0 mm 3 mps 759 mmHg 27%
    11:00 +36°C° 0 mm 3 mps 759 mmHg 24%
    12:00 +36°C° 0 mm 4 mps 759 mmHg 24%
    13:00 +36°C° 0 mm 4 mps 759 mmHg 23%
    14:00 +37°C° 0 mm 4 mps 759 mmHg 23%
    15:00 +36°C° 0 mm 4 mps 759 mmHg 24%
    16:00 +35°C° 0 mm 4 mps 758 mmHg 25%
    17:00 +35°C° 0 mm 4 mps 758 mmHg 26%
    18:00 +31°C° 0 mm 3 mps 758 mmHg 31%
    19:00 +29°C° 0 mm 3 mps 758 mmHg 37%
    20:00 +27°C° 0 mm 2 mps 758 mmHg 42%
    21:00 +26°C° 0 mm 2 mps 758 mmHg 44%
    22:00 +25°C° 0 mm 2 mps 757 mmHg 46%
    23:00 +25°C° 0 mm 2 mps 757 mmHg 48%

    23 July, Tuesday

    Time Temperature Precipitation Wind Pressure Humidity
    00:00 +24°C° 0 mm 2 mps 757 mmHg 51%
    01:00 +24°C° 0 mm 2 mps 757 mmHg 53%
    02:00 +23°C° 0 mm 2 mps 756 mmHg 56%
    03:00 +23°C° 0 mm 2 mps 756 mmHg 57%
    04:00 +23°C° 0 mm 2 mps 756 mmHg 58%
    05:00 +23°C° 0 mm 2 mps 756 mmHg 58%
    06:00 +26°C° 0 mm 2 mps 756 mmHg 51%
    07:00 +28°C° 0 mm 2 mps 755 mmHg 44%
    08:00 +31°C° 0 mm 2 mps 755 mmHg 37%
    09:00 +31°C° 0 mm 3 mps 755 mmHg 36%
    10:00 +33°C° 0 mm 4 mps 755 mmHg 34%
    11:00 +34°C° 0 mm 5 mps 755 mmHg 32%
    12:00 +32°C° 0.1 mm 5 mps 755 mmHg 41%
    13:00 +29°C° 0.1 mm 5 mps 755 mmHg 50%
    14:00 +27°C° 0.1 mm 5 mps 755 mmHg 59%
    15:00 +27°C° 0.1 mm 4 mps 755 mmHg 61%
    16:00 +26°C° 0.1 mm 4 mps 755 mmHg 63%
    17:00 +25°C° 0.1 mm 3 mps 754 mmHg 65%
    18:00 +24°C° 0 mm 3 mps 754 mmHg 68%
    19:00 +24°C° 0 mm 2 mps 754 mmHg 70%
    20:00 +23°C° 0 mm 2 mps 754 mmHg 73%
    21:00 +23°C° 0 mm 2 mps 754 mmHg 74%
    22:00 +21°C° 0 mm 2 mps 754 mmHg 76%
    23:00 +21°C° 0 mm 2 mps 754 mmHg 77%

    24 July, Wednesday

    Time Temperature Precipitation Wind Pressure Humidity
    00:00 +21°C° 0.1 mm 2 mps 754 mmHg 78%
    01:00 +22°C° 0.1 mm 1 mps 754 mmHg 79%
    02:00 +22°C° 0.1 mm 1 mps 753 mmHg 80%
    03:00 +21°C° 0 mm 1 mps 753 mmHg 81%
    04:00 +20°C° 0 mm 2 mps 753 mmHg 82%
    05:00 +20°C° 0 mm 2 mps 753 mmHg 83%
    06:00 +21°C° 0 mm 2 mps 753 mmHg 74%
    07:00 +24°C° 0 mm 3 mps 753 mmHg 65%
    08:00 +26°C° 0 mm 3 mps 753 mmHg 56%
    09:00 +27°C° 0 mm 3 mps 753 mmHg 49%
    10:00 +29°C° 0 mm 4 mps 753 mmHg 42%
    11:00 +30°C° 0 mm 4 mps 753 mmHg 35%
    12:00 +30°C° 0 mm 4 mps 753 mmHg 35%
    13:00 +30°C° 0 mm 4 mps 753 mmHg 36%
    14:00 +30°C° 0 mm 4 mps 753 mmHg 36%
    15:00 +29°C° 0 mm 4 mps 753 mmHg 38%
    16:00 +29°C° 0 mm 4 mps 752 mmHg 39%
    17:00 +28°C° 0 mm 4 mps 752 mmHg 41%
    18:00 +26°C° 0 mm 4 mps 753 mmHg 49%
    19:00 +23°C° 0 mm 4 mps 753 mmHg 57%
    20:00 +21°C° 0 mm 4 mps 753 mmHg 65%
    21:00 +21°C° 0 mm 4 mps 753 mmHg 70%
    22:00 +20°C° 0 mm 4 mps 753 mmHg 76%
    23:00 +19°C° 0 mm 4 mps 753 mmHg 82%
    Show more